Weather History for PAGK - September, 2012

Change the Weather History Date:

Thursday, September 20, 2012

  Actual Average (WUND) Record (WUND)
Temperature  
Mean Temperature 58 °F -  
Max Temperature 68 °F - - (-1)
Min Temperature 48 °F - - (-1)
Degree Days  
Heating Degree Days 7    
Growing Degree Days 8 (Base 50)    
Moisture  
Dew Point 45 °F    
Average Humidity 61    
Maximum Humidity 89    
Minimum Humidity 39    
Precipitation  
Precipitation 0.03 in - - ()
Sea Level Pressure  
Sea Level Pressure 29.73 in    
Wind  
Wind Speed 14 mph (South)    
Max Wind Speed 39 mph    
Max Gust Speed 56 mph    
Visibility 10 miles    
Events Rain    
Averages and records for this station are not official NWS values.
T = Trace of Precipitation, MM = Missing Value Source: NWS Daily Summary

Daily Weather History Graph

Daily Weather History Graph

Search for Another Location

Airport or City:

Trip Planner

Search our weather history database for the weather conditions in past years. The results will help you decide how hot, cold, wet, or windy it might be!

Date:

Astronomy

Sep. 20, 2012 Rise Set
Actual Time 7:22 AM AKDT 7:46 PM AKDT
Civil Twilight 6:37 AM AKDT 8:30 PM AKDT
Nautical Twilight 5:42 AM AKDT 9:25 PM AKDT
Astronomical Twilight 4:41 AM AKDT 10:25 PM AKDT
Moon 2:48 PM AKDT (9/20) 8:58 PM AKDT (9/20)
Length of Visible Light 13h 53m
Length of Day
12h 24m
Waxing Crescent, 28% of the Moon is Illuminated
Sep 20
Waxing Crescent
Sep 22
First Quarter
Sep 29
Full
Oct 7
Last Quarter
Oct 15
New

Hourly Weather History & Observations

Time (AKDT) Temp. Dew Point Humidity Pressure Visibility Wind Dir Wind Speed Gust Speed Precip Events Conditions
12:53 AM 57.9 °F 48.0 °F 70% 29.70 in 10.0 mi South 13.8 mph - 0.00 in   Overcast
1:53 AM 57.9 °F 46.0 °F 65% 29.73 in 10.0 mi South 15.0 mph 21.9 mph N/A   Overcast
2:53 AM 55.9 °F 46.0 °F 69% 29.74 in 10.0 mi SSE 12.7 mph - 0.00 in   Overcast
3:53 AM 55.9 °F 45.0 °F 67% 29.75 in 10.0 mi South 13.8 mph 25.3 mph N/A   Overcast
4:53 AM 55.0 °F 45.0 °F 69% 29.78 in 10.0 mi SSW 8.1 mph - 0.00 in   Overcast
5:53 AM 53.1 °F 46.0 °F 77% 29.78 in 10.0 mi South 6.9 mph - 0.00 in Rain Light Rain
6:53 AM 53.1 °F 46.0 °F 77% 29.78 in 10.0 mi SSE 17.3 mph 24.2 mph 0.00 in Rain Light Rain
7:53 AM 52.0 °F 46.0 °F 80% 29.79 in 10.0 mi SSE 12.7 mph - 0.00 in   Overcast
8:53 AM 53.1 °F 46.0 °F 77% 29.78 in 10.0 mi SW 5.8 mph - N/A   Overcast
9:53 AM 54.0 °F 46.0 °F 75% 29.76 in 10.0 mi SSW 10.4 mph - N/A   Overcast
10:53 AM 52.0 °F 48.9 °F 89% 29.77 in 9.0 mi SW 6.9 mph - 0.03 in   Overcast
11:53 AM 54.0 °F 50.0 °F 86% 29.77 in 10.0 mi West 5.8 mph - N/A   Overcast
12:53 PM 54.0 °F 50.0 °F 86% 29.74 in 10.0 mi Calm Calm - 0.00 in   Overcast
1:53 PM 55.9 °F 50.0 °F 80% 29.73 in 10.0 mi West 4.6 mph - N/A   Overcast
2:27 PM 66.2 °F 48.2 °F 52% 29.72 in 10.0 mi SSE 27.6 mph 40.3 mph N/A   Mostly Cloudy
2:53 PM 66.9 °F 46.9 °F 49% 29.69 in 10.0 mi SSE 39.1 mph 56.4 mph N/A   Mostly Cloudy
3:53 PM 66.0 °F 46.9 °F 50% 29.67 in 10.0 mi SSE 26.5 mph 47.2 mph N/A   Mostly Cloudy
4:53 PM 66.0 °F 46.0 °F 48% 29.71 in 10.0 mi SSE 23.0 mph 33.4 mph N/A   Scattered Clouds
5:53 PM 64.9 °F 43.0 °F 45% 29.69 in 10.0 mi South 24.2 mph 35.7 mph N/A   Scattered Clouds
6:53 PM 64.0 °F 39.9 °F 41% 29.71 in 10.0 mi SSE 20.7 mph 32.2 mph N/A   Scattered Clouds
7:53 PM 63.0 °F 41.0 °F 45% 29.71 in 10.0 mi SSE 25.3 mph 38.0 mph N/A   Mostly Cloudy
8:53 PM 62.1 °F 43.0 °F 50% 29.71 in 10.0 mi South 15.0 mph 25.3 mph 0.00 in Rain Light Rain
9:25 PM 60.8 °F 42.8 °F 52% 29.71 in 10.0 mi South 11.5 mph 21.9 mph 0.00 in   Overcast
9:53 PM 61.0 °F 43.0 °F 52% 29.70 in 10.0 mi SSE 10.4 mph - 0.00 in   Overcast
10:53 PM 63.0 °F 39.0 °F 41% 29.69 in 10.0 mi SSE 23.0 mph 35.7 mph N/A   Overcast
11:53 PM 61.0 °F 37.9 °F 42% 29.68 in 10.0 mi SSE 21.9 mph 34.5 mph N/A   Partly Cloudy